Precipitable_Water
0.61 0.58 0.57 0.56 0.53 0.54 0.55 0.57 0.60 0.61 0.60 0.59 0.57 0.56 0.55 0.57 0.57 0.58 0.57 0.59 0.61 0.62 0.60 0.59 0.61 0.59 0.58 0.58 0.57 0.59 0.64 0.68 0.75 0.82 0.86 0.87 0.89 0.91 0.93 0.98 0.97 1.03 1.09 1.09 1.15 1.16 1.16 1.16 1.15 1.11 1.10 1.13 1.14 1.03 0.91 0.83 0.81 0.78 0.74 0.74 0.73 0.73 0.73 0.69 0.62 0.62 0.70 0.81 0.86 0.87 0.86 0.84 0.81 0.82 0.77 0.75 0.74 0.74 0.70 0.68 0.66 0.64 0.62 0.58 0.55
0.59 0.61 0.58 0.56 0.55 0.55 0.57 0.58 0.60 0.60 0.59 0.57 0.55 0.52 0.52 0.57 0.59 0.58 0.55 0.59 0.60 0.58 0.57 0.58 0.59 0.59 0.58 0.57 0.57 0.56 0.59 0.63 0.69 0.79 0.85 0.88 0.88 0.91 0.93 0.90 0.91 0.94 1.01 1.09 1.13 1.17 1.17 1.17 1.17 1.19 1.19 1.12 1.17 1.13 1.03 0.90 0.83 0.79 0.74 0.75 0.76 0.75 0.77 0.71 0.67 0.63 0.60 0.72 0.77 0.85 0.87 0.87 0.80 0.83 0.77 0.73 0.74 0.74 0.71 0.69 0.67 0.64 0.63 0.61 0.59
0.58 0.58 0.56 0.54 0.54 0.55 0.56 0.56 0.58 0.59 0.57 0.54 0.53 0.55 0.55 0.55 0.57 0.57 0.58 0.57 0.54 0.55 0.57 0.55 0.56 0.57 0.56 0.56 0.56 0.56 0.55 0.57 0.63 0.74 0.79 0.82 0.86 0.89 0.91 0.88 0.84 0.84 0.89 0.99 1.09 1.11 1.13 1.17 1.19 1.21 1.24 1.18 1.16 1.15 1.12 1.04 0.91 0.84 0.80 0.77 0.79 0.80 0.80 0.77 0.73 0.67 0.63 0.71 0.76 0.74 0.76 0.80 0.80 0.80 0.81 0.80 0.78 0.78 0.74 0.72 0.70 0.66 0.65 0.63 0.61
0.57 0.55 0.53 0.53 0.54 0.54 0.53 0.56 0.57 0.56 0.52 0.53 0.53 0.55 0.53 0.53 0.56 0.56 0.55 0.55 0.54 0.55 0.55 0.54 0.53 0.52 0.51 0.54 0.56 0.55 0.53 0.54 0.56 0.66 0.77 0.85 0.91 0.92 0.93 0.93 0.85 0.83 0.85 0.92 1.06 1.16 1.13 1.11 1.12 1.18 1.19 1.18 1.13 1.15 1.18 1.14 1.03 0.92 0.86 0.82 0.80 0.84 0.82 0.82 0.78 0.75 0.74 0.68 0.78 0.78 0.78 0.77 0.78 0.79 0.77 0.79 0.80 0.80 0.76 0.74 0.69 0.66 0.65 0.63 0.60
0.54 0.53 0.52 0.52 0.53 0.52 0.52 0.53 0.52 0.52 0.52 0.52 0.52 0.52 0.52 0.53 0.55 0.53 0.52 0.51 0.50 0.51 0.50 0.50 0.49 0.51 0.52 0.53 0.51 0.54 0.54 0.55 0.57 0.65 0.77 0.85 0.87 0.94 0.98 0.94 0.88 0.87 0.89 0.90 0.95 1.03 1.09 1.15 1.10 1.16 1.16 1.13 1.14 1.13 1.14 1.12 1.09 1.01 0.92 0.87 0.81 0.82 0.84 0.84 0.81 0.78 0.76 0.72 0.76 0.80 0.82 0.80 0.81 0.79 0.72 0.72 0.75 0.76 0.75 0.71 0.70 0.69 0.66 0.63 0.61
0.53 0.52 0.53 0.52 0.51 0.49 0.50 0.50 0.49 0.52 0.53 0.53 0.53 0.53 0.53 0.53 0.52 0.52 0.51 0.50 0.50 0.49 0.49 0.52 0.54 0.53 0.53 0.54 0.53 0.53 0.55 0.56 0.60 0.64 0.69 0.77 0.83 0.84 0.86 0.90 0.90 0.88 0.88 0.89 0.92 1.00 1.06 1.09 1.13 1.15 1.14 1.11 1.12 1.13 1.15 1.11 1.10 1.05 0.95 0.89 0.86 0.84 0.86 0.87 0.87 0.82 0.76 0.75 0.74 0.77 0.80 0.78 0.77 0.78 0.77 0.72 0.71 0.70 0.71 0.71 0.73 0.71 0.68 0.63 0.62
0.53 0.53 0.53 0.51 0.50 0.48 0.50 0.50 0.50 0.51 0.53 0.52 0.51 0.52 0.53 0.52 0.51 0.50 0.51 0.50 0.49 0.49 0.50 0.51 0.53 0.53 0.52 0.52 0.53 0.54 0.54 0.57 0.64 0.65 0.68 0.73 0.77 0.80 0.82 0.84 0.88 0.92 0.89 0.90 0.93 0.97 1.02 1.07 1.11 1.12 1.12 1.15 1.13 1.13 1.13 1.11 1.08 1.06 1.02 0.93 0.92 0.88 0.87 0.88 0.87 0.83 0.78 0.73 0.72 0.74 0.79 0.80 0.79 0.74 0.77 0.76 0.73 0.71 0.68 0.68 0.68 0.72 0.70 0.66 0.61
0.54 0.54 0.54 0.51 0.50 0.48 0.50 0.51 0.50 0.51 0.52 0.51 0.51 0.52 0.52 0.51 0.51 0.51 0.51 0.50 0.51 0.51 0.51 0.50 0.53 0.54 0.55 0.55 0.56 0.56 0.56 0.59 0.66 0.69 0.72 0.72 0.74 0.76 0.81 0.82 0.84 0.84 0.83 0.84 0.89 0.92 0.96 1.01 1.07 1.11 1.14 1.14 1.15 1.17 1.16 1.12 1.09 1.07 1.07 1.00 0.97 0.93 0.89 0.89 0.88 0.83 0.79 0.78 0.76 0.72 0.77 0.81 0.79 0.80 0.81 0.77 0.71 0.70 0.70 0.68 0.67 0.68 0.68 0.70 0.69
0.54 0.54 0.52 0.51 0.50 0.50 0.51 0.52 0.52 0.51 0.50 0.51 0.51 0.51 0.50 0.51 0.51 0.50 0.50 0.51 0.54 0.53 0.51 0.52 0.53 0.54 0.56 0.57 0.57 0.59 0.59 0.64 0.66 0.70 0.71 0.70 0.71 0.71 0.72 0.76 0.78 0.79 0.80 0.79 0.83 0.88 0.92 0.98 1.04 1.09 1.12 1.13 1.16 1.18 1.18 1.18 1.12 1.08 1.07 1.03 0.97 0.97 0.94 0.93 0.91 0.86 0.83 0.81 0.78 0.78 0.77 0.76 0.79 0.77 0.75 0.73 0.71 0.69 0.71 0.69 0.68 0.72 0.71 0.69 0.71
0.55 0.53 0.52 0.51 0.51 0.51 0.52 0.52 0.51 0.50 0.50 0.50 0.50 0.50 0.50 0.50 0.50 0.50 0.52 0.54 0.54 0.53 0.52 0.52 0.54 0.55 0.54 0.55 0.57 0.60 0.65 0.72 0.72 0.72 0.72 0.70 0.70 0.71 0.71 0.71 0.73 0.76 0.77 0.77 0.78 0.85 0.89 0.95 1.01 1.05 1.08 1.10 1.12 1.13 1.14 1.15 1.16 1.13 1.09 1.06 1.01 0.97 0.96 0.93 0.91 0.87 0.85 0.83 0.83 0.80 0.77 0.79 0.78 0.79 0.76 0.76 0.78 0.78 0.74 0.72 0.66 0.69 0.72 0.69 0.69
0.54 0.54 0.52 0.52 0.51 0.52 0.52 0.51 0.50 0.50 0.51 0.50 0.50 0.49 0.49 0.50 0.50 0.52 0.53 0.53 0.53 0.51 0.50 0.53 0.55 0.54 0.54 0.55 0.56 0.59 0.64 0.73 0.74 0.76 0.75 0.72 0.70 0.67 0.65 0.66 0.70 0.73 0.76 0.77 0.76 0.80 0.86 0.92 0.96 1.01 1.04 1.07 1.08 1.08 1.08 1.10 1.11 1.11 1.10 1.08 1.06 1.01 0.95 0.92 0.92 0.89 0.87 0.86 0.88 0.86 0.83 0.80 0.82 0.83 0.80 0.80 0.80 0.79 0.75 0.76 0.72 0.69 0.68 0.66 0.60
0.54 0.52 0.51 0.51 0.51 0.51 0.50 0.49 0.50 0.50 0.49 0.48 0.48 0.50 0.51 0.51 0.51 0.52 0.52 0.51 0.52 0.51 0.52 0.53 0.53 0.55 0.56 0.56 0.56 0.57 0.61 0.69 0.71 0.72 0.71 0.70 0.69 0.67 0.65 0.64 0.66 0.71 0.76 0.77 0.79 0.81 0.83 0.88 0.93 0.98 1.01 1.04 1.04 1.05 1.05 1.06 1.07 1.08 1.08 1.06 1.04 1.02 1.01 0.99 0.93 0.89 0.90 0.88 0.86 0.87 0.86 0.84 0.85 0.84 0.82 0.81 0.80 0.81 0.81 0.78 0.73 0.70 0.68 0.66 0.63
0.53 0.52 0.51 0.50 0.51 0.50 0.49 0.49 0.49 0.48 0.49 0.50 0.52 0.51 0.50 0.50 0.50 0.50 0.50 0.52 0.52 0.50 0.50 0.52 0.53 0.55 0.55 0.54 0.56 0.58 0.60 0.66 0.70 0.72 0.70 0.69 0.68 0.67 0.65 0.63 0.63 0.66 0.72 0.76 0.78 0.81 0.84 0.87 0.91 0.97 0.99 1.02 1.05 1.03 1.02 1.01 1.03 1.04 1.05 1.05 1.02 0.99 0.98 0.97 0.97 0.95 0.95 0.92 0.89 0.89 0.90 0.90 0.86 0.85 0.86 0.85 0.87 0.83 0.84 0.80 0.74 0.71 0.70 0.67 0.65
0.51 0.50 0.50 0.50 0.50 0.49 0.48 0.48 0.48 0.48 0.49 0.49 0.50 0.49 0.48 0.48 0.48 0.49 0.50 0.51 0.50 0.49 0.51 0.52 0.53 0.54 0.54 0.55 0.56 0.57 0.57 0.62 0.66 0.71 0.71 0.70 0.68 0.67 0.65 0.63 0.64 0.65 0.69 0.74 0.77 0.80 0.87 0.88 0.89 0.93 0.98 0.99 0.99 1.01 1.00 0.98 0.98 1.00 1.01 1.00 0.98 0.95 0.93 0.91 0.95 0.95 0.96 0.94 0.92 0.89 0.94 0.95 0.90 0.91 0.93 0.91 0.87 0.84 0.83 0.78 0.75 0.71 0.71 0.72 0.75
0.50 0.50 0.50 0.50 0.49 0.49 0.48 0.48 0.47 0.47 0.48 0.49 0.49 0.49 0.49 0.48 0.48 0.49 0.50 0.50 0.49 0.50 0.50 0.51 0.53 0.54 0.54 0.54 0.54 0.54 0.56 0.59 0.64 0.69 0.71 0.71 0.70 0.67 0.65 0.64 0.63 0.63 0.66 0.72 0.77 0.80 0.85 0.88 0.89 0.90 0.95 0.97 0.97 1.02 1.01 0.98 0.95 0.94 0.94 0.93 0.92 0.89 0.88 0.90 0.95 0.96 0.96 0.96 0.94 0.94 0.94 0.94 0.95 0.95 0.96 0.94 0.91 0.89 0.85 0.80 0.76 0.76 0.78 0.80 0.78
0.49 0.49 0.48 0.49 0.48 0.48 0.46 0.46 0.46 0.46 0.45 0.46 0.46 0.45 0.46 0.47 0.47 0.49 0.50 0.49 0.49 0.50 0.50 0.52 0.53 0.53 0.54 0.55 0.55 0.55 0.58 0.64 0.68 0.71 0.74 0.73 0.73 0.69 0.64 0.61 0.59 0.60 0.64 0.71 0.77 0.83 0.85 0.86 0.88 0.91 0.95 0.95 0.93 0.91 0.93 0.95 0.93 0.87 0.84 0.86 0.86 0.83 0.79 0.85 0.96 0.98 0.95 0.93 0.94 0.94 0.93 0.93 0.94 0.95 0.95 0.96 0.94 0.91 0.86 0.84 0.82 0.82 0.75 0.71 0.67
0.47 0.47 0.46 0.47 0.47 0.46 0.46 0.45 0.45 0.45 0.45 0.45 0.45 0.45 0.44 0.45 0.46 0.48 0.47 0.47 0.47 0.48 0.49 0.51 0.54 0.54 0.54 0.56 0.57 0.58 0.60 0.68 0.69 0.69 0.69 0.71 0.71 0.69 0.65 0.61 0.58 0.57 0.59 0.68 0.73 0.78 0.83 0.84 0.87 0.91 0.96 0.98 1.01 0.98 0.93 0.91 0.87 0.85 0.80 0.78 0.79 0.80 0.81 0.87 0.91 0.92 0.89 0.87 0.88 0.90 0.92 0.94 0.95 0.95 0.95 0.96 0.94 0.89 0.83 0.78 0.74 0.76 0.70 0.62 0.63
0.47 0.46 0.45 0.46 0.46 0.45 0.45 0.44 0.43 0.43 0.43 0.42 0.42 0.43 0.44 0.46 0.45 0.44 0.44 0.45 0.46 0.49 0.50 0.50 0.53 0.54 0.55 0.56 0.58 0.59 0.65 0.69 0.71 0.71 0.70 0.70 0.69 0.68 0.67 0.63 0.59 0.58 0.60 0.66 0.69 0.75 0.79 0.83 0.86 0.88 0.91 0.99 1.05 1.03 1.01 0.99 0.94 0.91 0.88 0.85 0.85 0.85 0.86 0.90 0.89 0.91 0.95 0.95 0.93 0.91 0.92 0.95 0.94 0.94 0.94 0.93 0.90 0.88 0.83 0.74 0.73 0.73 0.66 0.63 0.58
0.46 0.45 0.44 0.44 0.44 0.45 0.44 0.43 0.43 0.43 0.43 0.43 0.43 0.42 0.42 0.42 0.43 0.44 0.43 0.46 0.48 0.49 0.49 0.49 0.50 0.52 0.55 0.57 0.59 0.64 0.66 0.65 0.70 0.71 0.70 0.68 0.67 0.66 0.67 0.65 0.62 0.60 0.59 0.59 0.66 0.70 0.76 0.81 0.83 0.85 0.86 0.93 1.02 1.03 1.03 1.03 0.98 0.96 0.93 0.89 0.86 0.85 0.87 0.91 0.90 0.90 0.91 0.92 0.92 0.92 0.92 0.94 0.94 0.93 0.93 0.91 0.88 0.87 0.86 0.81 0.77 0.71 0.61 0.58 0.61
0.46 0.46 0.46 0.44 0.44 0.44 0.45 0.44 0.45 0.45 0.44 0.45 0.45 0.44 0.44 0.42 0.42 0.42 0.44 0.44 0.44 0.46 0.48 0.49 0.48 0.49 0.54 0.57 0.59 0.65 0.65 0.70 0.72 0.69 0.69 0.67 0.65 0.64 0.64 0.62 0.59 0.58 0.58 0.57 0.58 0.64 0.73 0.79 0.82 0.83 0.83 0.88 0.96 1.01 1.01 1.02 1.00 0.99 0.97 0.91 0.87 0.85 0.92 0.92 0.92 0.92 0.93 0.92 0.92 0.93 0.92 0.93 0.93 0.93 0.91 0.88 0.87 0.87 0.85 0.83 0.78 0.74 0.68 0.66 0.67
0.47 0.45 0.45 0.44 0.44 0.45 0.47 0.48 0.47 0.47 0.47 0.47 0.48 0.47 0.46 0.43 0.42 0.43 0.43 0.42 0.42 0.43 0.44 0.45 0.46 0.47 0.51 0.55 0.58 0.61 0.65 0.67 0.64 0.63 0.64 0.64 0.63 0.63 0.61 0.59 0.60 0.59 0.58 0.57 0.59 0.62 0.68 0.73 0.79 0.81 0.82 0.84 0.89 0.95 0.99 1.01 1.01 0.99 0.97 0.93 0.93 0.94 0.97 0.93 0.94 0.95 0.93 0.92 0.91 0.92 0.92 0.92 0.92 0.90 0.87 0.86 0.85 0.85 0.82 0.79 0.75 0.77 0.73 0.69 0.67
0.50 0.46 0.44 0.45 0.47 0.48 0.49 0.50 0.52 0.51 0.52 0.51 0.50 0.49 0.47 0.45 0.44 0.42 0.41 0.40 0.41 0.42 0.40 0.41 0.45 0.46 0.47 0.51 0.55 0.60 0.67 0.63 0.62 0.61 0.60 0.60 0.59 0.60 0.58 0.58 0.60 0.60 0.58 0.58 0.58 0.60 0.65 0.71 0.75 0.79 0.79 0.79 0.83 0.90 0.95 0.98 0.99 1.00 0.99 0.99 0.99 0.98 0.96 0.95 0.94 0.94 0.92 0.91 0.89 0.88 0.88 0.88 0.87 0.85 0.82 0.81 0.81 0.81 0.78 0.74 0.74 0.77 0.75 0.73 0.71
0.50 0.48 0.46 0.47 0.49 0.50 0.51 0.52 0.52 0.53 0.53 0.53 0.52 0.49 0.46 0.45 0.45 0.42 0.41 0.40 0.39 0.38 0.38 0.41 0.44 0.44 0.43 0.45 0.50 0.54 0.56 0.61 0.63 0.61 0.61 0.60 0.59 0.59 0.58 0.57 0.58 0.60 0.60 0.58 0.58 0.60 0.65 0.70 0.76 0.80 0.79 0.78 0.80 0.85 0.90 0.94 0.96 0.97 0.97 0.97 0.96 0.94 0.93 0.92 0.92 0.91 0.90 0.89 0.86 0.84 0.84 0.85 0.84 0.82 0.80 0.77 0.77 0.77 0.73 0.68 0.72 0.73 0.72 0.72 0.74
0.52 0.49 0.48 0.48 0.49 0.51 0.53 0.54 0.56 0.56 0.55 0.54 0.52 0.50 0.48 0.47 0.45 0.43 0.43 0.40 0.36 0.35 0.37 0.40 0.41 0.39 0.37 0.39 0.44 0.47 0.50 0.54 0.60 0.63 0.62 0.59 0.58 0.57 0.57 0.56 0.57 0.58 0.59 0.60 0.63 0.64 0.64 0.67 0.71 0.75 0.77 0.78 0.77 0.80 0.85 0.90 0.94 0.94 0.94 0.94 0.93 0.92 0.90 0.88 0.89 0.89 0.88 0.85 0.82 0.81 0.81 0.82 0.81 0.80 0.77 0.74 0.73 0.69 0.65 0.60 0.67 0.70 0.63 0.67 0.74
0.52 0.50 0.49 0.50 0.52 0.54 0.56 0.56 0.57 0.57 0.56 0.55 0.53 0.52 0.49 0.48 0.45 0.44 0.43 0.41 0.38 0.36 0.37 0.39 0.38 0.36 0.33 0.32 0.36 0.42 0.46 0.46 0.57 0.63 0.61 0.58 0.56 0.56 0.55 0.55 0.56 0.56 0.55 0.59 0.64 0.66 0.66 0.67 0.71 0.72 0.74 0.75 0.75 0.75 0.79 0.85 0.89 0.92 0.93 0.92 0.92 0.90 0.88 0.86 0.85 0.86 0.83 0.81 0.81 0.81 0.83 0.83 0.82 0.82 0.79 0.75 0.73 0.70 0.61 0.53 0.61 0.67 0.65 0.63 0.73
0.52 0.51 0.51 0.51 0.53 0.55 0.56 0.57 0.57 0.56 0.56 0.56 0.54 0.53 0.51 0.50 0.48 0.46 0.44 0.43 0.41 0.39 0.38 0.40 0.40 0.40 0.38 0.35 0.34 0.38 0.44 0.45 0.47 0.53 0.56 0.53 0.54 0.53 0.53 0.54 0.56 0.56 0.56 0.57 0.61 0.65 0.67 0.67 0.69 0.72 0.74 0.74 0.73 0.71 0.73 0.80 0.86 0.89 0.89 0.90 0.88 0.87 0.85 0.82 0.81 0.81 0.80 0.79 0.78 0.76 0.75 0.76 0.73 0.74 0.77 0.79 0.79 0.71 0.70 0.58 0.52 0.57 0.62 0.61 0.62
0.52 0.51 0.51 0.52 0.54 0.56 0.56 0.56 0.56 0.56 0.55 0.55 0.55 0.55 0.55 0.55 0.52 0.49 0.48 0.46 0.45 0.44 0.42 0.42 0.41 0.42 0.42 0.40 0.37 0.37 0.40 0.43 0.47 0.48 0.48 0.48 0.49 0.51 0.50 0.52 0.55 0.55 0.55 0.56 0.56 0.60 0.65 0.68 0.68 0.69 0.71 0.73 0.73 0.72 0.71 0.75 0.81 0.85 0.86 0.88 0.86 0.85 0.83 0.81 0.80 0.78 0.78 0.77 0.76 0.76 0.75 0.73 0.69 0.64 0.63 0.75 0.76 0.71 0.72 0.66 0.60 0.60 0.61 0.64 0.59
0.52 0.51 0.50 0.52 0.53 0.54 0.55 0.56 0.57 0.57 0.57 0.56 0.55 0.55 0.58 0.60 0.56 0.53 0.51 0.49 0.48 0.47 0.45 0.44 0.44 0.43 0.43 0.41 0.39 0.36 0.37 0.41 0.46 0.43 0.42 0.45 0.47 0.48 0.49 0.51 0.52 0.53 0.52 0.54 0.55 0.57 0.61 0.66 0.68 0.69 0.70 0.71 0.71 0.70 0.69 0.71 0.74 0.80 0.83 0.84 0.85 0.86 0.85 0.84 0.82 0.80 0.78 0.78 0.76 0.77 0.76 0.69 0.64 0.60 0.59 0.69 0.71 0.70 0.67 0.65 0.64 0.63 0.62 0.61 0.57
0.52 0.51 0.51 0.53 0.54 0.56 0.56 0.56 0.58 0.59 0.59 0.59 0.58 0.58 0.57 0.58 0.60 0.57 0.56 0.54 0.52 0.47 0.46 0.46 0.46 0.47 0.45 0.41 0.38 0.37 0.38 0.40 0.43 0.45 0.45 0.46 0.46 0.46 0.46 0.48 0.51 0.52 0.54 0.55 0.55 0.57 0.59 0.62 0.63 0.65 0.65 0.65 0.66 0.67 0.66 0.66 0.68 0.74 0.78 0.81 0.82 0.83 0.82 0.81 0.77 0.76 0.77 0.75 0.72 0.73 0.73 0.64 0.59 0.57 0.55 0.63 0.69 0.68 0.67 0.64 0.66 0.65 0.63 0.62 0.56
0.52 0.52 0.52 0.52 0.53 0.53 0.54 0.55 0.58 0.61 0.61 0.59 0.57 0.58 0.59 0.58 0.59 0.59 0.55 0.53 0.51 0.50 0.48 0.46 0.47 0.48 0.47 0.45 0.42 0.39 0.41 0.46 0.48 0.49 0.48 0.47 0.47 0.47 0.48 0.49 0.51 0.52 0.54 0.56 0.57 0.55 0.55 0.57 0.60 0.62 0.63 0.64 0.65 0.65 0.65 0.64 0.64 0.67 0.72 0.77 0.79 0.80 0.79 0.78 0.78 0.77 0.77 0.75 0.72 0.73 0.73 0.64 0.58 0.53 0.51 0.54 0.66 0.69 0.70 0.66 0.65 0.67 0.63 0.62 0.59
0.49 0.50 0.51 0.52 0.52 0.52 0.54 0.56 0.61 0.61 0.62 0.62 0.59 0.57 0.56 0.55 0.53 0.54 0.54 0.51 0.50 0.49 0.47 0.48 0.48 0.47 0.49 0.48 0.46 0.46 0.49 0.52 0.52 0.51 0.50 0.49 0.48 0.47 0.46 0.46 0.48 0.51 0.54 0.54 0.55 0.55 0.54 0.54 0.56 0.61 0.63 0.64 0.64 0.65 0.66 0.65 0.63 0.63 0.66 0.71 0.75 0.77 0.77 0.76 0.76 0.76 0.75 0.74 0.73 0.75 0.75 0.72 0.63 0.54 0.50 0.49 0.53 0.63 0.66 0.65 0.69 0.71 0.67 0.64 0.61
0.49 0.49 0.50 0.51 0.52 0.53 0.54 0.54 0.56 0.56 0.56 0.57 0.57 0.54 0.52 0.47 0.46 0.49 0.50 0.49 0.49 0.50 0.51 0.51 0.50 0.48 0.49 0.49 0.45 0.45 0.51 0.53 0.53 0.51 0.50 0.49 0.47 0.45 0.43 0.41 0.45 0.50 0.54 0.55 0.53 0.54 0.56 0.56 0.56 0.55 0.58 0.61 0.64 0.67 0.68 0.67 0.66 0.65 0.64 0.65 0.69 0.73 0.75 0.74 0.76 0.75 0.74 0.75 0.75 0.77 0.76 0.72 0.70 0.67 0.64 0.61 0.56 0.53 0.57 0.59 0.65 0.68 0.68 0.66 0.67
0.53 0.53 0.52 0.51 0.51 0.51 0.52 0.53 0.54 0.54 0.53 0.53 0.52 0.51 0.48 0.46 0.44 0.43 0.48 0.50 0.52 0.53 0.52 0.52 0.50 0.49 0.48 0.46 0.46 0.46 0.51 0.55 0.54 0.53 0.51 0.49 0.46 0.42 0.40 0.40 0.44 0.51 0.53 0.54 0.52 0.53 0.55 0.57 0.57 0.57 0.56 0.55 0.59 0.63 0.68 0.70 0.69 0.67 0.65 0.64 0.66 0.70 0.73 0.75 0.77 0.77 0.77 0.77 0.76 0.75 0.77 0.77 0.73 0.70 0.69 0.64 0.59 0.58 0.56 0.55 0.64 0.66 0.67 0.66 0.68
0.51 0.50 0.49 0.49 0.49 0.50 0.51 0.51 0.49 0.49 0.51 0.52 0.50 0.48 0.46 0.44 0.44 0.43 0.43 0.44 0.46 0.47 0.49 0.51 0.49 0.49 0.50 0.49 0.48 0.51 0.55 0.57 0.56 0.56 0.53 0.48 0.43 0.41 0.41 0.39 0.45 0.51 0.53 0.53 0.55 0.54 0.56 0.54 0.53 0.54 0.56 0.56 0.57 0.58 0.62 0.67 0.70 0.70 0.68 0.67 0.67 0.70 0.73 0.76 0.75 0.74 0.74 0.75 0.74 0.74 0.76 0.76 0.74 0.71 0.67 0.64 0.61 0.59 0.56 0.61 0.68 0.68 0.65 0.64 0.62
0.44 0.43 0.43 0.48 0.49 0.48 0.48 0.46 0.44 0.44 0.45 0.47 0.47 0.45 0.44 0.46 0.45 0.44 0.42 0.40 0.41 0.42 0.44 0.45 0.48 0.48 0.48 0.47 0.49 0.53 0.55 0.56 0.56 0.55 0.52 0.47 0.42 0.43 0.44 0.42 0.43 0.47 0.50 0.54 0.54 0.55 0.52 0.54 0.53 0.52 0.53 0.55 0.57 0.58 0.58 0.61 0.64 0.66 0.66 0.66 0.67 0.69 0.71 0.73 0.73 0.73 0.72 0.71 0.72 0.72 0.73 0.75 0.75 0.74 0.71 0.69 0.67 0.64 0.62 0.62 0.65 0.67 0.64 0.63 0.59
0.37 0.38 0.43 0.46 0.47 0.45 0.39 0.37 0.39 0.42 0.42 0.42 0.44 0.47 0.48 0.47 0.45 0.45 0.44 0.44 0.44 0.45 0.46 0.48 0.49 0.49 0.48 0.48 0.52 0.55 0.55 0.56 0.55 0.54 0.50 0.45 0.43 0.44 0.41 0.41 0.42 0.43 0.44 0.48 0.50 0.51 0.50 0.51 0.50 0.50 0.52 0.53 0.56 0.58 0.60 0.60 0.62 0.64 0.66 0.66 0.65 0.66 0.68 0.72 0.74 0.73 0.73 0.73 0.72 0.72 0.73 0.74 0.76 0.76 0.76 0.74 0.72 0.70 0.68 0.65 0.64 0.65 0.64 0.59 0.54
0.42 0.43 0.45 0.44 0.42 0.40 0.39 0.37 0.37 0.38 0.39 0.41 0.43 0.45 0.46 0.45 0.44 0.44 0.44 0.43 0.44 0.45 0.45 0.46 0.45 0.46 0.47 0.49 0.53 0.55 0.56 0.55 0.55 0.52 0.49 0.46 0.44 0.43 0.42 0.44 0.43 0.44 0.43 0.44 0.46 0.46 0.45 0.46 0.48 0.49 0.50 0.51 0.53 0.55 0.58 0.60 0.62 0.63 0.64 0.64 0.64 0.64 0.64 0.66 0.71 0.73 0.73 0.73 0.75 0.75 0.74 0.73 0.74 0.75 0.74 0.72 0.71 0.69 0.66 0.64 0.63 0.61 0.60 0.55 0.55
0.45 0.44 0.41 0.41 0.41 0.38 0.36 0.37 0.38 0.40 0.42 0.44 0.45 0.45 0.44 0.44 0.44 0.43 0.43 0.43 0.43 0.43 0.43 0.43 0.43 0.43 0.40 0.44 0.54 0.55 0.54 0.54 0.54 0.52 0.50 0.46 0.43 0.41 0.40 0.43 0.45 0.42 0.41 0.43 0.45 0.44 0.43 0.44 0.47 0.47 0.49 0.51 0.52 0.54 0.54 0.56 0.58 0.59 0.61 0.63 0.62 0.62 0.62 0.62 0.64 0.67 0.70 0.71 0.72 0.73 0.73 0.73 0.74 0.74 0.73 0.72 0.71 0.65 0.57 0.55 0.54 0.53 0.54 0.56 0.59
0.44 0.40 0.37 0.37 0.34 0.34 0.37 0.37 0.37 0.38 0.39 0.41 0.42 0.42 0.42 0.43 0.42 0.42 0.42 0.42 0.43 0.43 0.43 0.45 0.45 0.44 0.43 0.44 0.50 0.54 0.51 0.48 0.47 0.45 0.44 0.42 0.40 0.38 0.37 0.37 0.38 0.39 0.40 0.41 0.42 0.42 0.43 0.44 0.46 0.48 0.48 0.49 0.50 0.51 0.52 0.53 0.55 0.56 0.57 0.58 0.60 0.61 0.60 0.59 0.59 0.60 0.63 0.65 0.68 0.70 0.71 0.72 0.73 0.74 0.74 0.72 0.71 0.67 0.60 0.58 0.55 0.52 0.49 0.50 0.54
0.43 0.40 0.34 0.28 0.30 0.34 0.36 0.37 0.37 0.37 0.38 0.39 0.39 0.39 0.40 0.41 0.42 0.42 0.42 0.41 0.41 0.43 0.45 0.45 0.44 0.44 0.44 0.46 0.48 0.47 0.44 0.43 0.42 0.42 0.40 0.39 0.38 0.38 0.37 0.36 0.37 0.37 0.37 0.37 0.39 0.41 0.41 0.42 0.45 0.46 0.47 0.47 0.47 0.48 0.48 0.50 0.51 0.53 0.54 0.55 0.55 0.56 0.58 0.59 0.59 0.58 0.58 0.60 0.62 0.66 0.68 0.69 0.71 0.72 0.72 0.71 0.70 0.70 0.66 0.63 0.61 0.58 0.52 0.50 0.53
0.40 0.33 0.28 0.29 0.31 0.34 0.36 0.38 0.38 0.38 0.38 0.39 0.40 0.40 0.38 0.40 0.41 0.41 0.41 0.41 0.41 0.42 0.44 0.45 0.44 0.44 0.49 0.48 0.48 0.47 0.43 0.42 0.42 0.42 0.42 0.40 0.38 0.37 0.36 0.36 0.37 0.37 0.38 0.38 0.38 0.38 0.38 0.38 0.39 0.43 0.46 0.46 0.46 0.46 0.47 0.47 0.49 0.51 0.51 0.53 0.53 0.54 0.55 0.57 0.58 0.58 0.59 0.59 0.59 0.60 0.62 0.65 0.66 0.67 0.66 0.67 0.68 0.68 0.68 0.67 0.66 0.65 0.63 0.54 0.47
0.37 0.33 0.31 0.30 0.28 0.28 0.30 0.32 0.34 0.37 0.40 0.41 0.42 0.42 0.43 0.43 0.42 0.41 0.41 0.40 0.41 0.41 0.40 0.42 0.44 0.45 0.50 0.50 0.50 0.49 0.46 0.45 0.44 0.43 0.42 0.41 0.38 0.36 0.36 0.36 0.37 0.36 0.36 0.37 0.39 0.38 0.37 0.37 0.37 0.40 0.43 0.45 0.46 0.45 0.44 0.44 0.47 0.48 0.49 0.50 0.50 0.51 0.51 0.52 0.54 0.55 0.57 0.58 0.59 0.60 0.60 0.61 0.62 0.62 0.63 0.64 0.63 0.62 0.61 0.62 0.63 0.62 0.61 0.58 0.51
0.37 0.36 0.34 0.31 0.27 0.24 0.26 0.29 0.34 0.37 0.39 0.40 0.41 0.43 0.44 0.45 0.43 0.42 0.41 0.40 0.40 0.40 0.39 0.38 0.41 0.44 0.50 0.51 0.51 0.50 0.48 0.46 0.44 0.43 0.43 0.40 0.38 0.37 0.37 0.36 0.36 0.36 0.38 0.39 0.39 0.40 0.39 0.38 0.37 0.38 0.40 0.43 0.45 0.45 0.44 0.44 0.46 0.47 0.48 0.49 0.49 0.49 0.51 0.52 0.52 0.53 0.54 0.54 0.55 0.57 0.58 0.59 0.60 0.60 0.62 0.62 0.62 0.61 0.58 0.58 0.58 0.58 0.57 0.55 0.52
0.38 0.35 0.31 0.26 0.23 0.24 0.28 0.32 0.35 0.38 0.40 0.41 0.42 0.43 0.44 0.47 0.48 0.46 0.45 0.43 0.42 0.42 0.41 0.40 0.40 0.42 0.45 0.48 0.49 0.49 0.47 0.46 0.46 0.45 0.43 0.42 0.40 0.38 0.36 0.36 0.36 0.37 0.39 0.39 0.39 0.39 0.39 0.39 0.38 0.39 0.39 0.41 0.44 0.46 0.46 0.45 0.45 0.45 0.46 0.48 0.49 0.49 0.51 0.51 0.51 0.53 0.53 0.53 0.53 0.52 0.52 0.53 0.55 0.57 0.58 0.59 0.59 0.58 0.57 0.56 0.56 0.55 0.54 0.51 0.50
0.29 0.25 0.22 0.21 0.22 0.26 0.29 0.32 0.35 0.38 0.40 0.40 0.41 0.43 0.45 0.46 0.47 0.48 0.47 0.46 0.45 0.44 0.43 0.40 0.39 0.39 0.40 0.42 0.45 0.44 0.46 0.46 0.45 0.45 0.44 0.42 0.40 0.39 0.39 0.38 0.38 0.39 0.39 0.39 0.39 0.38 0.37 0.38 0.40 0.38 0.37 0.38 0.41 0.41 0.43 0.46 0.48 0.47 0.47 0.46 0.46 0.47 0.49 0.50 0.53 0.54 0.55 0.55 0.55 0.55 0.54 0.52 0.51 0.51 0.52 0.53 0.52 0.52 0.52 0.53 0.55 0.56 0.54 0.51 0.49
0.21 0.21 0.21 0.23 0.26 0.29 0.32 0.34 0.36 0.38 0.40 0.40 0.40 0.41 0.43 0.44 0.46 0.47 0.47 0.47 0.49 0.48 0.45 0.43 0.41 0.39 0.39 0.39 0.41 0.42 0.42 0.42 0.43 0.45 0.46 0.44 0.42 0.40 0.40 0.40 0.40 0.40 0.40 0.40 0.38 0.37 0.37 0.39 0.39 0.38 0.38 0.36 0.37 0.39 0.41 0.43 0.44 0.46 0.47 0.46 0.46 0.47 0.49 0.51 0.53 0.54 0.54 0.54 0.54 0.55 0.55 0.54 0.53 0.52 0.51 0.50 0.49 0.49 0.48 0.48 0.50 0.52 0.51 0.49 0.48
0.22 0.24 0.26 0.29 0.31 0.33 0.35 0.37 0.38 0.39 0.39 0.38 0.39 0.40 0.43 0.44 0.45 0.46 0.47 0.48 0.48 0.48 0.46 0.45 0.44 0.42 0.40 0.40 0.40 0.41 0.41 0.41 0.42 0.43 0.44 0.44 0.43 0.42 0.41 0.41 0.40 0.40 0.39 0.39 0.39 0.37 0.37 0.37 0.37 0.37 0.38 0.38 0.38 0.38 0.39 0.41 0.41 0.42 0.44 0.44 0.45 0.46 0.48 0.49 0.51 0.52 0.54 0.55 0.55 0.54 0.54 0.54 0.54 0.54 0.54 0.53 0.51 0.50 0.49 0.48 0.46 0.47 0.48 0.48 0.47
0.30 0.33 0.35 0.36 0.37 0.37 0.37 0.38 0.38 0.38 0.37 0.38 0.38 0.40 0.41 0.43 0.45 0.46 0.47 0.49 0.50 0.49 0.47 0.46 0.45 0.44 0.43 0.41 0.40 0.39 0.39 0.39 0.41 0.43 0.44 0.45 0.43 0.43 0.42 0.41 0.40 0.40 0.40 0.39 0.38 0.38 0.38 0.38 0.37 0.38 0.38 0.38 0.38 0.37 0.38 0.39 0.40 0.40 0.40 0.42 0.44 0.46 0.47 0.48 0.49 0.50 0.51 0.53 0.54 0.54 0.54 0.53 0.53 0.54 0.54 0.54 0.52 0.50 0.49 0.49 0.49 0.47 0.46 0.46 0.47
0.38 0.40 0.40 0.38 0.37 0.37 0.38 0.38 0.36 0.36 0.38 0.38 0.38 0.39 0.41 0.41 0.43 0.44 0.46 0.48 0.49 0.48 0.48 0.48 0.47 0.46 0.44 0.41 0.40 0.39 0.39 0.38 0.39 0.42 0.44 0.45 0.44 0.43 0.42 0.42 0.42 0.41 0.40 0.38 0.38 0.36 0.36 0.36 0.37 0.37 0.37 0.37 0.37 0.38 0.38 0.38 0.38 0.37 0.39 0.41 0.42 0.42 0.44 0.46 0.47 0.48 0.50 0.51 0.52 0.53 0.53 0.53 0.52 0.52 0.53 0.53 0.53 0.52 0.51 0.50 0.49 0.48 0.49 0.48 0.48
0.42 0.41 0.39 0.38 0.36 0.34 0.34 0.35 0.36 0.37 0.37 0.37 0.37 0.38 0.38 0.41 0.43 0.44 0.46 0.50 0.53 0.53 0.51 0.50 0.48 0.46 0.44 0.44 0.42 0.40 0.39 0.38 0.38 0.41 0.44 0.45 0.44 0.43 0.43 0.43 0.42 0.42 0.40 0.39 0.38 0.37 0.37 0.36 0.37 0.37 0.37 0.37 0.37 0.37 0.38 0.36 0.36 0.37 0.38 0.39 0.39 0.40 0.40 0.42 0.43 0.45 0.48 0.50 0.51 0.53 0.54 0.53 0.53 0.52 0.52 0.52 0.52 0.52 0.50 0.49 0.48 0.46 0.45 0.46 0.47
0.41 0.39 0.38 0.37 0.35 0.35 0.37 0.37 0.38 0.38 0.38 0.38 0.39 0.39 0.39 0.41 0.43 0.45 0.47 0.47 0.46 0.47 0.48 0.47 0.46 0.46 0.46 0.45 0.43 0.41 0.41 0.40 0.40 0.41 0.43 0.44 0.45 0.44 0.43 0.43 0.42 0.42 0.41 0.41 0.40 0.39 0.38 0.38 0.38 0.38 0.38 0.38 0.38 0.38 0.37 0.36 0.36 0.36 0.37 0.38 0.38 0.38 0.38 0.38 0.39 0.42 0.44 0.47 0.50 0.52 0.53 0.53 0.53 0.52 0.51 0.51 0.51 0.51 0.50 0.48 0.47 0.46 0.44 0.44 0.45
Wind_Speed
21 20 21 22 24 24 24 24 23 23 23 24 24 24 25 25 24 25 25 25 26 26 26 26 26 25 25 25 25 25 25 26 27 28 29 29 30 29 29 30 31 31 31 32 34 35 37 37 36 35 35 34 32 32 32 32 30 29 28 26 26 25 24 23 23 22 21 20 19 18 17 17 17 16 15 14 15 14 13 12 13 13 13 12 12
22 22 22 24 24 25 24 24 24 24 24 24 24 25 25 25 25 25 25 25 26 26 26 27 27 26 26 25 25 25 25 26 26 27 28 29 29 29 30 30 31 31 30 31 31 33 35 36 36 35 35 35 34 32 32 33 32 31 30 28 27 26 25 24 24 23 23 21 21 20 19 18 18 17 17 16 16 15 14 13 13 13 12 12 12
22 23 23 24 25 25 25 25 24 25 25 25 25 25 25 25 25 25 25 26 26 26 27 27 27 27 27 26 26 25 26 26 26 26 27 28 28 28 29 30 31 31 31 30 30 30 32 34 35 35 34 34 35 34 32 33 33 32 31 30 29 27 26 26 24 24 23 22 22 22 22 20 19 19 19 18 18 17 16 15 14 14 13 12 12
23 23 24 24 25 25 26 25 25 25 25 25 25 25 25 26 26 26 26 26 26 27 27 27 27 27 27 27 27 27 26 26 26 26 26 26 26 26 27 28 29 30 30 30 29 28 30 32 34 35 34 33 34 34 33 32 33 33 32 31 30 28 27 26 26 25 24 23 23 23 23 22 21 20 20 19 19 18 17 16 16 15 13 13 13
24 24 25 25 26 26 26 25 25 26 26 25 26 26 26 25 26 26 26 27 27 27 27 28 27 27 27 27 28 28 27 26 25 25 25 25 25 25 26 27 28 29 29 30 30 29 28 29 31 33 35 35 34 34 34 33 32 33 33 32 31 30 28 27 27 26 25 24 24 23 23 22 22 22 21 20 19 19 19 18 17 16 15 14 13
25 25 26 26 27 27 27 26 26 26 26 26 26 26 26 26 26 27 27 27 28 28 28 28 27 27 28 28 28 28 28 26 25 25 26 25 25 25 26 26 27 28 28 29 30 30 29 28 29 31 34 35 35 35 35 34 32 32 32 32 31 31 29 28 27 27 26 25 25 24 24 23 22 22 22 21 20 19 19 19 18 17 17 15 15
26 26 27 27 28 28 27 26 26 26 26 26 26 27 27 27 27 27 27 28 28 28 28 28 28 28 29 29 29 28 28 26 25 25 25 25 24 25 25 26 26 27 28 28 29 29 29 28 28 29 32 34 34 35 35 34 34 33 32 32 31 31 31 29 28 28 27 26 26 25 24 24 23 23 23 22 22 21 20 20 20 19 19 18 16
27 27 27 28 28 29 28 26 26 26 26 27 27 27 28 28 28 28 28 28 28 28 28 29 29 29 29 29 29 29 28 26 25 25 25 24 24 24 25 25 26 27 28 28 28 29 30 29 28 28 29 31 33 34 34 34 33 33 33 32 32 32 31 30 29 28 27 27 27 26 25 25 25 24 24 23 23 22 22 22 21 20 20 19 18
27 27 28 28 29 29 28 26 26 27 27 27 27 28 28 28 29 29 29 29 28 28 29 29 30 30 30 30 30 29 28 27 26 25 25 25 25 25 25 25 26 27 28 29 29 29 29 29 29 29 28 29 32 33 33 32 32 31 32 33 33 32 31 30 29 29 28 27 27 26 26 26 25 25 25 24 24 23 22 22 22 21 20 20 19
27 28 28 28 29 28 27 27 27 28 27 27 28 28 29 29 29 29 29 29 29 29 30 30 30 30 30 30 30 30 29 27 27 26 25 25 25 25 25 25 25 26 27 28 29 29 29 29 30 30 29 29 30 32 33 32 32 31 30 31 32 31 31 30 30 30 29 28 27 27 27 26 26 26 27 26 25 24 23 23 23 23 21 20 20
27 28 28 28 28 28 27 28 28 28 28 28 28 29 29 29 29 29 30 30 30 30 31 31 31 31 31 30 30 30 29 28 27 27 26 26 25 25 25 25 25 25 26 27 28 28 29 29 29 29 30 29 30 31 32 32 31 31 30 30 31 31 31 31 30 30 29 29 28 27 27 27 26 26 27 27 26 25 24 23 24 24 23 22 21
28 28 28 28 28 27 28 28 28 28 28 28 28 29 29 30 30 30 31 31 31 31 32 32 32 31 31 31 31 31 30 29 28 27 27 27 26 26 26 25 25 25 25 26 27 28 28 29 28 28 29 30 29 30 31 31 31 31 31 31 31 31 30 30 30 30 29 28 28 28 28 28 27 27 27 26 25 25 24 24 24 24 24 23 22
27 27 28 28 28 28 28 27 27 28 28 28 29 30 30 30 31 32 33 32 32 33 33 33 32 32 32 32 31 31 31 30 29 28 28 27 27 26 26 26 25 25 25 25 26 27 27 28 28 28 28 29 29 29 30 31 31 32 31 31 32 32 31 31 30 30 29 28 28 28 27 27 28 28 28 27 25 24 23 23 24 25 24 23 23
27 27 28 28 28 28 28 27 28 28 28 29 30 30 31 32 33 33 34 34 34 34 34 34 33 33 32 32 32 31 31 30 29 28 28 27 27 27 26 26 25 25 25 24 24 25 26 27 28 28 28 28 29 29 30 31 32 32 31 31 31 32 32 32 31 31 30 30 29 29 28 27 27 27 27 27 26 25 23 23 24 25 24 23 22
27 27 28 28 28 28 27 28 28 28 29 30 31 32 32 33 34 34 34 34 35 34 34 34 34 33 32 32 32 32 31 30 29 28 27 27 27 27 26 26 25 25 25 24 24 24 25 25 27 28 28 28 28 28 28 30 31 32 31 31 31 32 33 33 33 32 32 32 31 31 30 29 28 27 27 27 26 26 25 24 24 24 24 23 22
27 27 28 28 27 27 27 28 28 29 30 31 32 33 34 34 35 35 35 35 35 35 35 34 34 33 33 32 32 31 30 29 27 27 27 27 27 26 26 25 25 24 24 24 23 23 24 24 25 27 27 28 28 28 27 27 28 30 32 31 32 33 34 34 33 33 33 33 32 31 31 30 29 28 28 27 26 25 25 25 24 24 25 24 23
27 28 27 27 27 27 28 29 30 31 32 33 33 34 35 35 36 36 36 36 35 35 34 34 33 33 32 32 31 30 29 27 26 26 26 26 26 26 25 25 24 24 23 23 22 22 23 24 24 25 26 27 27 28 28 28 28 29 30 31 32 32 33 33 33 33 33 33 33 32 31 30 29 28 27 26 26 26 25 25 25 25 25 24 24
27 27 27 27 28 28 29 30 32 33 33 34 35 35 36 36 36 36 36 36 35 34 33 33 32 32 31 30 29 28 27 26 25 25 25 25 25 25 24 24 23 23 23 23 22 22 22 23 23 24 25 26 27 27 27 29 29 29 29 30 30 31 31 31 32 32 32 32 32 31 31 30 29 28 28 27 26 26 25 25 25 25 24 24 24
27 28 28 29 29 29 30 31 32 33 34 35 36 36 37 36 36 36 36 35 34 32 32 31 31 30 29 28 27 27 26 25 24 24 25 25 25 24 23 23 23 22 22 22 22 22 21 21 22 23 24 25 26 26 26 27 29 29 29 29 29 30 30 30 30 30 30 29 30 30 29 29 29 29 28 27 27 27 25 25 25 24 23 24 25
28 29 29 29 29 30 31 31 32 33 35 36 36 37 37 37 37 36 35 33 32 31 30 29 28 27 27 26 26 25 25 24 24 24 24 24 23 23 23 22 22 22 22 22 22 22 21 20 21 22 23 23 24 24 25 25 26 27 28 28 29 29 29 29 28 28 28 27 26 27 27 28 28 28 28 27 27 27 26 25 25 24 23 24 25
29 30 30 30 30 31 31 31 32 34 35 36 37 37 37 37 37 36 34 31 30 29 28 27 25 25 25 25 25 25 24 24 24 24 24 24 23 23 23 22 22 22 22 21 21 21 21 21 21 21 22 23 23 24 24 24 25 26 26 27 27 28 28 28 27 26 26 25 25 24 25 26 27 27 27 27 27 27 26 26 25 24 23 23 22
29 30 30 30 31 32 32 32 33 34 35 36 37 37 38 37 36 35 32 30 28 27 26 25 24 24 24 25 24 24 24 24 25 25 24 24 23 23 23 22 22 21 21 21 21 21 21 21 21 21 21 22 23 24 24 24 24 25 24 24 24 25 26 27 27 26 26 25 24 24 25 26 27 27 27 27 27 27 27 26 26 25 23 22 21
29 30 30 31 32 33 33 34 34 35 36 37 38 38 37 36 35 33 31 29 27 26 25 24 24 24 24 24 24 24 24 25 25 24 24 23 23 23 22 22 22 21 21 20 20 20 21 21 20 20 21 21 22 23 23 23 23 23 22 22 22 22 24 26 28 28 27 26 26 25 25 26 26 26 26 27 27 27 27 27 27 25 24 22 21
29 29 31 32 32 33 34 35 35 36 36 37 38 38 37 36 34 32 30 28 27 26 25 24 24 24 25 25 25 25 25 25 24 23 23 23 23 23 22 22 22 21 21 20 19 19 20 20 21 21 21 21 21 22 23 23 23 22 22 22 21 21 22 25 27 29 28 27 26 26 26 25 25 26 26 25 26 26 26 27 27 26 24 23 21
29 30 31 33 33 33 34 35 36 36 37 37 38 38 37 36 33 31 30 28 27 25 25 25 25 25 26 26 27 26 25 25 24 23 23 24 24 23 22 22 21 21 20 20 19 19 19 20 20 20 21 21 20 21 23 23 23 23 23 22 22 21 21 22 25 27 28 27 26 26 26 26 25 25 26 25 25 25 25 25 26 26 25 23 22
30 31 32 33 33 34 35 35 36 36 37 38 38 37 37 36 34 31 30 29 28 26 26 26 26 27 28 28 27 27 26 25 25 24 24 24 24 23 23 22 21 21 20 20 20 19 19 20 19 19 20 20 20 20 22 23 23 23 23 23 22 22 21 21 22 24 26 27 27 26 26 25 25 25 25 26 26 25 24 24 25 25 25 24 22
30 31 32 33 33 34 35 35 36 37 37 38 38 38 37 36 35 32 31 30 30 29 28 28 28 29 30 29 29 27 26 25 24 25 25 25 24 24 22 21 21 21 20 20 19 19 18 18 19 19 19 20 20 20 21 22 23 23 23 23 23 22 22 21 21 21 23 25 26 26 26 25 26 25 25 25 26 26 25 24 25 25 24 24 23
31 32 33 33 34 34 35 35 36 37 37 38 38 38 37 37 35 33 32 31 31 31 30 30 30 30 31 31 29 27 26 24 24 25 26 25 24 24 22 21 21 20 20 20 19 18 18 17 18 18 18 19 20 20 20 21 22 23 23 24 24 24 22 22 21 20 21 23 25 26 26 25 26 27 25 24 25 26 25 25 25 25 25 25 24
32 32 33 34 34 35 35 36 37 38 38 38 38 38 38 38 36 34 33 32 31 32 33 31 30 31 31 30 28 27 25 24 24 25 25 25 24 23 22 21 20 20 20 20 19 18 17 16 17 17 18 18 19 20 20 21 22 23 23 23 25 25 24 23 22 21 21 21 23 24 25 26 26 27 27 25 24 25 25 25 26 26 25 25 25
32 33 33 34 34 35 36 37 38 38 38 37 38 39 39 38 37 36 34 33 33 34 34 32 31 32 31 30 28 27 25 24 24 24 24 24 24 24 22 21 20 19 19 19 18 17 16 16 16 17 17 17 18 19 20 21 22 22 22 22 23 24 25 25 24 22 22 22 22 22 23 25 26 27 28 27 26 25 25 25 26 26 26 25 25
32 33 34 34 35 36 38 38 38 38 38 38 39 40 40 39 38 36 35 34 34 34 33 33 33 33 33 31 29 27 25 24 23 23 24 24 24 23 23 21 20 19 18 17 16 16 16 15 15 15 16 17 17 18 19 21 22 23 23 22 22 22 24 25 25 23 21 22 22 21 21 22 24 25 26 26 26 26 26 25 25 26 26 25 25
33 34 35 36 37 38 38 39 39 39 39 39 40 40 40 39 38 36 34 34 34 33 33 33 32 33 32 30 28 27 25 24 23 23 23 23 23 23 23 21 19 18 17 17 16 16 16 15 15 14 14 15 16 17 18 19 21 23 23 23 23 22 22 23 24 24 22 21 21 22 21 21 21 22 24 24 25 26 26 26 26 25 25 26 25
34 35 36 38 38 38 39 39 40 40 39 39 40 40 39 39 38 36 34 33 33 33 32 32 31 32 31 29 26 25 24 23 22 22 22 22 22 23 22 21 19 18 17 16 16 15 15 15 14 14 13 14 15 15 16 18 20 22 23 24 24 23 22 21 22 23 23 22 21 21 21 20 21 22 22 23 23 24 24 25 25 25 25 25 25
35 37 38 38 38 38 38 39 39 39 38 38 39 39 38 37 37 36 35 33 32 32 31 31 30 29 28 25 23 22 21 21 21 20 20 21 22 22 22 20 19 17 16 15 15 14 14 14 13 13 13 14 14 14 15 16 18 20 22 23 24 24 23 22 21 22 22 23 23 22 21 20 21 22 22 22 22 22 22 23 23 24 24 25 25
36 37 37 36 36 37 37 38 38 37 37 37 37 37 37 36 36 35 34 33 32 31 30 29 28 26 24 22 21 20 20 20 20 19 19 20 20 20 20 19 17 16 15 14 14 14 13 13 13 13 13 13 14 14 15 15 16 18 19 21 23 24 25 24 23 22 22 22 24 25 23 22 22 22 22 22 22 22 23 23 23 23 24 24 25
36 36 35 35 35 36 37 37 38 37 37 37 37 36 36 35 35 35 34 33 32 30 28 28 27 25 23 21 20 19 19 19 19 18 18 19 19 19 20 19 17 16 15 14 14 14 14 14 14 14 13 13 13 13 14 15 16 17 18 19 21 22 24 24 24 24 24 24 24 25 26 25 24 23 23 23 23 23 24 25 24 24 24 24 25
35 34 34 35 36 37 37 37 37 37 36 36 36 35 35 35 35 34 33 32 31 29 28 27 26 25 23 21 19 18 18 18 18 17 18 19 19 20 20 19 17 15 15 15 14 14 14 14 14 14 14 14 14 14 14 14 15 16 17 18 19 20 22 23 23 24 25 25 25 25 26 27 26 25 25 25 25 24 24 25 26 25 24 24 24
33 34 35 35 36 37 38 37 37 36 36 36 36 35 35 35 34 34 33 32 31 30 28 27 25 24 23 21 19 17 17 17 17 17 18 19 19 19 19 18 16 16 15 15 15 14 14 15 15 14 14 14 14 14 14 14 14 15 16 17 19 20 21 22 23 24 25 26 26 26 27 28 28 28 28 27 27 26 25 25 26 26 25 25 24
33 34 36 37 38 38 38 37 37 37 36 36 36 36 36 35 34 34 33 32 32 30 28 26 25 24 23 22 19 17 17 17 17 18 18 19 19 19 19 18 17 16 16 16 15 15 15 15 15 15 14 14 14 14 15 15 15 16 16 16 18 19 20 22 23 24 25 26 26 27 27 28 28 28 29 29 28 27 26 26 26 26 26 26 26
33 35 37 38 39 38 38 38 37 37 37 36 36 36 35 35 34 34 33 32 31 30 29 27 26 24 23 22 20 19 19 19 18 19 19 19 19 19 19 18 17 16 15 15 15 15 14 15 15 15 15 15 15 15 15 16 16 17 17 17 17 19 20 21 22 23 25 26 26 27 27 27 27 27 28 28 29 29 29 29 29 29 29 28 27
34 36 38 39 39 39 39 38 38 38 38 37 37 36 35 34 33 33 33 32 31 30 29 28 26 24 22 21 20 20 20 19 19 19 19 19 19 18 18 17 16 15 15 15 15 14 14 15 15 16 15 15 15 15 16 16 17 17 17 18 18 19 20 21 22 23 24 25 26 27 27 28 28 27 28 28 29 30 30 30 30 30 30 30 29
36 38 39 40 41 41 40 40 39 38 38 37 37 36 36 34 33 33 34 33 31 30 29 28 26 24 22 21 20 20 20 20 20 20 19 19 18 18 17 17 16 16 15 15 15 15 15 15 15 16 16 15 15 15 15 16 17 17 17 18 18 18 19 20 21 22 23 23 24 26 27 28 28 28 28 28 29 29 30 30 30 30 30 31 31
38 39 40 42 43 42 41 40 40 39 38 38 37 37 35 34 33 33 33 32 31 30 29 28 27 25 23 22 21 21 21 20 20 19 19 19 18 17 17 17 17 16 15 15 15 16 15 15 15 16 16 16 15 15 15 16 17 17 18 18 18 18 19 19 19 20 21 22 23 24 26 27 28 29 29 29 29 29 29 30 30 30 30 30 30
40 41 43 43 43 42 41 40 39 39 39 38 37 36 35 34 34 34 33 32 31 30 29 28 27 25 24 23 22 21 21 20 20 20 19 19 18 18 17 18 17 17 16 15 15 16 16 15 15 15 16 16 16 16 16 17 17 17 18 18 19 19 19 19 19 20 20 21 22 23 24 25 26 28 29 29 29 30 30 29 29 29 29 29 29
42 43 43 43 42 41 41 40 40 39 39 38 37 36 35 35 34 34 33 33 32 31 30 28 27 26 25 24 22 22 21 21 20 20 20 20 19 19 18 18 17 17 16 16 15 15 15 15 15 15 16 16 16 16 16 17 17 18 18 18 19 19 20 20 20 20 21 21 22 22 23 24 25 26 27 28 28 29 29 29 29 29 29 29 29
43 43 42 42 41 41 41 40 40 39 39 38 38 37 36 35 34 34 34 33 32 32 31 29 28 26 25 24 24 23 22 21 20 20 20 20 19 19 18 18 18 17 17 16 16 15 15 15 15 15 15 16 16 16 16 16 17 17 18 18 19 19 20 21 21 21 21 21 21 22 22 23 24 25 25 26 27 28 29 29 30 30 30 30 29
43 42 41 41 41 41 41 41 40 40 40 39 39 38 36 35 35 35 35 34 33 33 32 30 28 26 25 25 25 25 23 22 21 20 20 19 19 19 19 19 19 18 18 17 16 16 15 15 15 15 15 15 16 16 16 16 16 17 17 18 19 20 20 21 22 22 22 22 22 22 22 22 23 24 25 25 26 27 27 28 29 30 30 30 30
42 41 41 41 41 41 41 41 41 41 41 40 40 39 38 37 36 36 35 35 34 34 32 30 28 27 26 26 25 24 23 22 21 20 19 19 19 19 20 19 19 19 18 17 16 15 15 15 15 15 15 15 15 16 16 16 16 16 17 17 18 19 20 21 21 22 22 22 23 23 23 23 23 23 23 25 25 26 26 27 27 29 29 30 30
41 42 42 42 42 42 42 42 42 42 42 41 40 40 39 38 38 37 36 35 35 34 32 30 29 28 27 26 25 24 23 22 20 19 19 20 20 19 19 19 19 18 18 18 17 16 16 16 15 15 15 15 15 16 16 16 16 17 17 17 17 18 19 20 21 21 22 23 23 23 23 23 23 23 23 23 24 25 26 26 27 27 28 29 30
42 43 43 43 43 43 43 43 43 43 43 42 42 41 40 39 39 38 37 35 34 34 33 31 30 28 27 26 25 24 23 22 21 20 20 20 19 18 18 18 18 18 18 18 17 17 16 16 16 15 15 15 14 15 15 15 15 16 16 16 17 17 18 19 20 20 21 22 23 23 23 23 23 23 23 22 23 24 24 25 25 26 26 27 28
43 44 44 44 44 44 44 44 44 44 44 44 43 43 42 41 40 39 38 37 35 34 33 31 30 28 27 26 25 23 22 22 21 20 19 19 19 19 19 18 18 18 18 18 17 17 17 16 16 16 15 15 14 14 13 13 14 14 15 15 16 17 18 18 19 20 21 21 23 23 23 23 24 24 23 23 22 22 23 24 24 25 25 25 26
Wind_Direction
326 326 327 326 323 322 321 321 321 322 323 325 325 325 324 323 324 326 326 325 325 324 323 321 319 319 318 315 311 307 300 294 287 280 274 271 270 269 268 267 266 264 263 261 258 254 251 250 251 251 249 248 248 247 245 245 246 246 246 246 247 247 248 248 249 251 253 253 250 249 250 249 252 254 252 253 255 256 259 260 259 259 261 264 267
325 327 328 327 324 322 321 320 320 320 322 323 323 324 324 323 324 325 324 324 324 324 323 322 321 321 320 316 313 310 306 300 294 286 279 274 270 269 268 267 266 265 264 263 261 256 253 251 250 250 248 246 246 247 246 244 244 245 245 245 245 246 246 247 248 249 251 251 250 251 252 251 252 252 252 254 255 257 260 260 259 259 259 261 264
324 326 326 325 323 322 321 319 319 319 321 321 321 322 323 324 324 323 323 323 323 323 323 323 322 321 319 316 313 310 308 304 299 293 285 278 273 270 269 268 267 266 264 262 262 259 255 252 250 249 248 246 245 245 245 245 243 243 244 244 244 244 245 245 246 248 249 249 249 250 251 251 251 252 254 254 253 254 258 259 258 259 257 257 260
324 324 324 324 323 322 321 319 319 319 319 319 320 321 322 322 322 322 322 322 322 322 323 322 321 319 317 316 314 311 308 305 302 298 292 284 277 273 273 271 268 266 264 261 260 260 258 255 252 248 246 246 245 244 244 245 244 242 243 243 243 243 244 244 244 246 248 250 250 249 249 250 250 252 253 254 252 252 255 257 258 259 255 254 258
323 323 324 324 324 323 320 318 318 317 317 318 319 319 320 319 320 320 320 320 321 321 321 320 319 318 317 316 314 312 309 307 304 300 297 290 281 276 276 274 270 266 264 261 259 259 260 258 254 249 246 245 245 245 245 245 243 242 242 242 242 242 243 243 244 245 247 249 250 250 249 249 249 250 251 252 252 252 253 253 254 256 254 253 256
322 323 323 323 323 322 319 317 318 317 316 318 318 318 318 318 319 319 319 320 320 319 319 320 320 320 319 317 316 313 311 308 304 301 298 294 286 280 277 276 273 268 265 262 259 257 258 259 257 252 247 245 245 245 244 242 242 243 241 241 242 241 241 242 244 245 246 247 248 249 249 248 248 249 249 250 251 252 253 251 250 252 253 252 254
322 322 322 322 322 321 319 317 318 317 317 318 318 318 318 318 318 318 319 319 319 318 319 320 321 320 319 317 316 314 311 308 304 302 300 296 291 284 279 276 274 271 267 263 260 258 257 258 258 255 250 246 244 243 243 241 241 242 240 240 242 241 240 241 243 244 245 245 246 247 248 248 247 247 249 249 250 251 253 253 252 251 251 251 252
322 321 321 321 321 321 319 318 318 318 317 317 317 317 318 317 318 318 318 318 317 318 319 319 319 318 317 316 315 314 313 310 306 303 301 298 294 289 283 278 275 272 269 265 262 260 258 257 257 255 252 247 244 243 243 241 239 240 238 239 242 242 240 240 242 243 244 245 245 245 247 247 247 247 249 250 249 250 252 253 252 251 249 251 251
322 321 321 321 321 320 319 319 319 319 317 317 318 318 317 317 317 317 317 316 317 318 318 318 317 317 316 316 315 314 313 311 307 304 301 299 296 292 287 282 278 274 270 266 263 262 260 257 254 254 252 249 244 241 240 239 238 238 239 239 240 240 239 240 241 241 242 243 244 245 246 246 246 246 248 249 248 249 251 251 251 252 250 250 251
323 323 322 322 322 321 320 320 320 319 318 318 318 318 317 317 317 317 316 317 318 318 317 316 315 315 315 314 313 313 312 310 308 305 302 299 296 293 290 286 281 277 273 269 265 262 260 257 255 253 252 249 245 240 239 239 239 239 239 238 238 238 238 239 240 239 240 241 243 244 245 246 247 246 246 248 248 248 250 250 250 252 250 249 249
324 324 323 323 322 322 322 321 320 319 319 319 318 318 317 317 317 316 317 318 318 317 316 315 314 314 313 312 311 311 311 310 307 304 302 299 296 294 292 288 284 281 276 271 266 263 260 257 256 254 252 249 245 241 239 240 239 239 238 238 237 237 237 237 237 237 239 241 242 243 245 246 246 246 247 247 247 247 249 249 249 251 250 248 247
325 325 324 324 323 323 323 322 320 320 320 320 320 320 319 319 318 318 318 318 317 316 315 314 313 313 312 311 309 309 309 308 306 304 302 299 297 295 293 290 285 282 279 274 268 264 260 257 255 254 250 247 245 241 238 239 239 238 238 238 237 237 237 236 235 235 236 239 242 244 245 246 246 247 248 247 246 246 247 247 248 249 250 250 249
326 326 326 326 325 324 324 323 322 322 322 322 322 321 320 320 319 319 319 318 316 315 314 313 312 311 310 309 308 307 307 306 305 303 301 299 298 296 293 290 286 282 280 276 270 265 261 257 254 253 250 247 245 242 239 238 237 237 238 238 237 237 236 235 235 234 235 237 240 243 245 247 249 249 248 246 245 244 244 244 246 246 248 251 250
327 327 327 327 326 326 325 325 324 324 323 323 324 323 321 321 320 319 318 317 315 314 313 312 311 310 309 308 307 306 306 305 304 302 301 300 299 296 293 290 287 283 280 277 273 267 263 258 253 252 250 248 246 245 243 240 238 237 237 238 239 239 236 235 235 236 236 238 240 242 244 247 250 251 249 245 243 241 240 241 243 243 245 248 248
329 329 328 327 327 327 327 326 326 325 325 325 325 325 323 322 321 319 318 316 315 314 313 312 310 309 309 308 307 306 306 305 303 302 300 300 299 297 294 291 288 284 281 277 274 269 265 260 254 250 249 248 246 245 244 241 239 238 238 238 239 239 237 235 236 237 238 239 240 242 244 246 248 250 249 244 241 239 239 240 241 242 244 245 245
330 330 329 328 328 328 328 328 328 327 327 327 326 325 324 322 321 319 318 316 315 313 312 311 310 309 309 308 307 307 306 305 304 302 300 300 299 297 296 292 289 286 282 278 275 271 266 262 257 251 248 248 246 243 241 241 240 239 238 238 239 239 238 236 236 237 238 240 241 241 243 245 246 247 246 242 239 239 239 239 240 242 242 243 244
331 331 331 330 330 330 329 329 330 330 330 329 327 326 325 323 321 320 318 317 315 314 312 311 311 310 310 309 308 308 307 306 305 302 300 300 300 299 297 293 290 287 283 279 275 272 267 263 259 253 250 248 247 244 241 241 242 241 240 240 240 240 240 238 236 237 238 239 240 241 242 243 243 243 243 240 237 237 238 238 239 240 242 242 244
332 333 333 332 330 330 330 331 331 331 331 330 328 327 325 324 322 320 319 317 315 314 313 312 312 312 311 310 310 309 307 305 304 303 302 301 301 301 299 295 291 288 285 280 276 272 268 264 259 255 251 249 248 246 244 242 242 242 241 240 240 238 238 237 237 237 238 239 240 240 241 241 240 240 240 237 235 235 237 238 238 240 242 243 244
332 333 333 332 331 331 331 332 332 331 331 330 329 329 327 325 323 322 320 318 316 315 314 314 313 313 312 312 312 310 308 306 305 304 303 303 302 301 300 297 294 291 288 283 277 272 269 266 261 256 254 252 249 246 244 242 241 240 239 239 238 236 235 236 237 238 238 238 238 238 237 237 237 237 236 234 233 233 235 236 237 239 241 243 244
333 333 332 332 332 332 333 332 331 331 330 330 330 330 329 327 325 324 322 320 318 317 316 316 315 315 315 314 313 312 309 308 307 306 305 305 304 303 302 299 296 294 290 285 279 273 269 267 264 259 256 254 250 245 244 242 239 238 237 237 236 234 234 234 235 235 235 234 234 235 235 234 234 234 234 232 232 232 233 234 235 236 240 245 247
332 332 331 331 332 333 333 332 332 331 331 331 331 331 331 330 328 326 324 322 321 320 319 318 318 318 317 316 316 315 312 310 309 307 306 307 306 304 302 300 297 294 291 287 281 275 270 267 265 261 257 254 250 246 244 242 240 239 238 237 235 233 232 232 231 230 228 229 230 233 233 232 231 231 232 231 231 232 232 232 233 235 240 247 248
330 331 330 330 331 332 332 332 332 332 332 332 332 332 332 331 330 329 327 325 324 324 323 321 320 321 320 318 318 318 315 313 311 309 308 307 306 304 302 300 298 294 292 288 282 276 270 266 264 263 260 255 251 246 243 242 242 240 237 234 232 230 230 231 231 228 226 227 229 230 230 230 229 230 231 230 231 232 232 231 232 235 239 244 246
327 328 328 329 330 331 332 332 332 332 332 332 332 332 331 331 331 330 328 327 328 327 326 325 325 325 323 321 321 321 319 317 314 312 311 310 308 305 303 300 298 294 292 289 284 277 271 266 263 263 262 257 252 247 243 241 240 237 232 228 227 230 232 232 231 229 228 229 230 230 229 229 229 230 231 231 232 232 231 231 232 234 237 240 241
325 326 327 328 328 329 330 331 331 331 332 332 332 331 331 331 331 330 328 327 327 328 328 327 328 328 326 323 322 322 321 320 318 315 314 312 310 308 305 302 299 295 292 289 285 279 273 268 264 262 261 259 253 247 243 240 238 235 231 228 229 234 235 234 231 230 230 231 231 230 230 230 230 231 231 231 231 231 230 230 231 231 234 236 238
323 324 326 326 326 327 329 329 329 330 331 332 332 331 330 329 329 328 327 325 324 325 326 326 326 326 324 322 320 319 320 320 319 317 316 314 312 309 306 303 300 297 293 289 285 281 275 270 265 261 259 258 254 247 242 239 236 235 234 233 235 237 237 234 231 230 231 231 231 231 232 232 233 234 234 232 231 230 230 231 230 230 232 234 235
322 323 324 325 325 326 327 328 328 329 330 331 331 331 329 327 326 325 324 322 321 321 320 321 322 322 321 319 317 316 316 317 316 316 317 316 313 309 306 303 301 299 295 290 285 282 276 270 266 262 258 256 253 248 242 238 235 235 236 234 233 235 236 235 232 231 231 231 231 232 232 232 235 237 236 233 229 228 230 230 230 230 231 231 233
322 322 323 324 324 324 325 326 327 329 329 329 330 329 327 325 323 321 319 319 319 319 317 316 316 317 318 317 315 313 313 313 313 315 317 317 314 310 306 303 301 300 296 292 287 283 278 270 266 264 259 255 252 248 243 239 235 236 237 234 231 232 235 235 233 232 232 232 231 231 231 232 235 236 235 232 227 225 227 229 228 227 228 229 231
322 322 323 324 324 324 324 326 327 327 327 327 328 329 327 324 321 318 316 316 317 317 316 314 314 315 315 315 314 311 310 311 311 313 315 316 316 313 308 305 302 300 297 294 289 283 278 272 267 264 260 256 252 247 243 240 237 236 237 235 231 230 231 232 231 231 232 232 230 230 231 232 234 234 232 230 225 222 224 226 225 226 227 227 230
322 322 323 324 324 324 325 326 326 326 325 325 326 328 327 324 321 317 314 313 313 314 313 312 312 313 314 314 312 310 308 308 310 311 313 314 315 314 310 306 303 300 297 294 289 282 278 273 268 264 260 257 253 248 243 239 237 236 237 235 232 230 230 230 229 230 232 231 229 229 231 232 232 232 230 227 224 222 223 225 225 225 226 227 229
323 322 323 323 324 325 325 326 327 326 325 323 324 327 327 325 321 317 313 311 311 310 310 308 308 309 310 310 309 307 305 305 307 309 311 313 314 313 310 306 302 299 296 293 288 281 277 274 270 266 261 257 254 250 245 240 236 235 235 234 232 231 231 231 231 232 235 233 229 229 231 230 231 232 230 228 225 223 223 224 225 225 225 226 230
322 323 323 324 324 324 325 326 327 327 325 323 323 325 326 325 322 318 314 313 312 311 310 308 306 306 306 306 305 304 301 301 304 307 309 311 313 313 311 307 302 298 296 293 287 281 277 274 273 270 264 258 255 252 248 243 237 234 232 232 232 231 231 231 232 233 232 229 228 230 230 227 227 228 227 226 225 225 224 224 225 226 226 227 231
323 323 324 324 324 324 324 325 325 324 324 323 323 323 325 326 324 321 317 314 313 311 310 308 306 305 304 302 301 300 299 298 301 305 307 309 312 313 312 307 301 297 295 291 286 282 277 273 273 273 269 264 258 254 250 245 240 235 232 231 231 232 232 233 231 227 225 226 229 230 228 224 222 221 220 221 222 224 224 224 225 227 228 230 234
324 324 324 324 324 324 324 324 324 324 324 325 325 325 325 326 326 324 321 318 315 312 311 309 307 306 305 301 299 298 297 297 299 303 305 308 310 313 313 308 301 295 292 288 285 282 278 274 271 270 270 268 264 257 251 246 241 237 235 233 232 232 233 233 231 227 226 227 228 225 222 220 219 217 217 219 220 222 223 224 225 227 229 231 235
325 324 324 324 324 324 325 325 325 325 325 326 326 326 326 327 327 327 324 322 319 316 314 312 310 309 308 305 301 298 297 297 298 301 304 307 309 312 314 310 301 294 291 286 282 281 279 276 273 271 269 268 265 260 255 250 244 239 237 234 233 232 232 232 231 230 227 225 224 222 221 221 221 220 220 221 222 223 224 225 227 229 230 233 236
326 325 324 325 325 326 327 327 327 327 327 327 328 328 328 328 329 329 327 324 322 320 319 317 316 314 311 307 302 299 299 299 298 299 302 306 308 312 315 312 303 295 290 286 282 280 278 277 276 274 272 268 265 261 258 253 248 243 239 236 234 233 232 231 231 231 229 226 224 225 226 225 225 225 226 226 228 228 228 228 230 231 232 234 236
327 326 327 328 329 329 329 329 328 328 328 329 329 329 329 330 331 331 330 327 325 323 322 321 320 318 313 306 301 299 301 300 298 298 301 305 308 312 315 313 304 295 290 286 282 280 279 277 275 275 274 270 267 263 260 255 251 247 243 239 236 233 232 231 231 231 231 231 230 229 230 229 228 227 227 228 230 230 229 230 231 232 233 234 235
327 329 330 330 330 330 329 329 328 328 329 329 330 330 330 330 330 332 332 330 328 325 323 322 321 318 314 308 301 299 302 301 298 298 301 304 307 310 311 309 302 294 289 287 283 281 279 276 273 273 272 269 267 264 262 258 254 250 247 244 240 236 233 232 231 231 232 233 233 233 234 234 232 230 230 230 231 231 230 230 230 231 232 234 235
328 330 331 331 330 330 329 329 328 328 328 329 329 329 329 329 329 330 331 331 329 326 324 322 320 317 314 311 305 302 303 302 300 300 302 304 306 309 309 306 300 294 290 288 285 282 279 277 274 272 269 267 266 264 262 260 257 254 249 246 243 240 238 236 235 234 233 233 234 236 237 238 236 234 232 233 233 232 231 231 232 233 233 235 237
329 330 330 330 329 329 328 328 328 328 327 328 328 328 328 328 328 328 329 329 328 326 324 322 320 316 314 312 308 305 304 302 299 300 302 304 306 308 309 307 303 296 292 290 288 285 280 278 277 274 270 267 265 263 261 260 259 256 253 248 244 242 241 240 239 238 237 236 236 237 238 239 238 236 234 234 234 233 233 233 234 235 236 237 239
329 329 329 329 329 328 327 327 327 327 327 327 327 327 327 327 326 326 327 327 326 324 322 320 317 314 311 309 307 305 304 302 299 299 300 302 304 307 308 308 306 300 294 290 290 288 282 278 277 277 274 270 266 263 262 261 259 257 255 252 248 244 243 242 242 241 240 239 238 238 238 237 237 236 235 234 235 235 236 237 237 237 238 240 240
327 327 328 329 328 327 326 325 325 325 325 325 325 325 325 325 324 324 324 325 324 323 321 318 315 313 311 308 306 305 305 302 299 297 297 298 300 303 305 307 307 304 297 290 288 287 284 279 275 275 275 272 268 265 263 262 259 257 255 254 252 249 246 244 244 243 243 241 240 239 238 237 236 236 236 236 237 238 238 238 239 239 241 242 242
326 326 327 327 327 326 324 324 324 323 324 324 325 325 324 324 324 323 323 323 323 322 320 318 316 314 312 309 306 304 303 303 301 297 295 295 296 299 301 303 305 304 299 291 286 284 283 279 275 273 273 273 270 267 264 261 259 257 255 254 253 252 250 248 246 244 244 243 242 240 238 237 236 237 237 238 240 240 239 239 239 241 242 242 242
326 325 325 325 325 324 323 322 322 323 323 323 324 324 323 322 322 322 322 322 321 320 319 317 316 314 311 308 305 303 302 302 301 298 295 294 294 296 297 299 301 302 299 294 288 284 282 280 276 273 271 271 270 267 265 263 261 258 256 254 252 252 252 251 249 247 245 244 243 242 240 239 238 238 238 238 239 239 240 240 241 241 242 241 241
326 325 324 324 324 324 323 322 322 322 322 322 322 323 322 321 320 320 320 319 319 318 317 315 314 312 309 306 304 302 300 300 300 299 297 295 293 292 293 294 297 299 299 296 290 285 282 280 278 275 272 271 270 269 266 264 261 259 256 254 252 251 251 251 250 249 248 246 244 243 242 241 240 239 239 239 239 239 239 240 240 241 241 242 242
325 324 324 324 324 324 323 322 322 322 322 321 321 321 320 319 318 318 318 317 317 317 316 314 312 309 306 304 302 301 299 298 298 298 297 294 290 289 289 291 293 296 297 295 292 288 283 280 278 277 274 272 271 271 269 266 263 260 257 255 253 251 250 250 249 249 248 248 247 246 244 243 242 241 240 239 239 239 239 238 238 239 240 241 242
325 325 325 325 325 324 323 322 322 322 322 321 320 320 318 317 316 316 315 314 314 313 313 312 310 306 303 302 302 301 299 297 296 296 295 292 289 286 285 286 288 290 293 294 292 289 285 281 279 279 277 274 273 273 271 269 267 263 260 257 256 254 252 251 250 249 249 248 248 246 245 244 243 242 242 241 240 240 239 238 238 237 238 239 241
326 326 326 325 325 324 324 323 323 322 322 321 320 319 317 317 316 315 313 312 311 310 310 309 307 304 301 301 300 299 297 296 295 294 294 293 290 287 284 283 283 284 287 289 290 288 285 282 280 279 278 276 275 275 273 271 269 266 262 259 258 257 255 254 252 251 250 249 248 246 245 244 243 242 242 241 241 240 240 240 239 238 238 239 240
327 327 326 326 325 325 324 324 324 323 322 321 320 319 317 316 315 314 312 310 309 308 307 307 305 302 300 299 298 296 295 295 293 291 291 292 291 288 284 281 280 280 281 283 285 285 284 282 281 280 279 278 277 276 275 273 270 268 266 263 261 259 258 257 255 253 252 251 249 247 246 245 244 243 243 241 241 240 240 240 240 240 239 239 239
327 327 326 326 326 326 325 324 324 323 322 321 320 319 317 316 315 314 312 310 307 305 305 304 303 301 298 297 294 293 293 295 294 292 291 291 290 288 285 281 279 278 277 278 280 281 281 280 280 280 280 279 278 276 276 274 271 269 268 267 265 263 261 260 258 255 253 252 250 248 247 246 245 245 244 243 242 241 240 240 240 240 240 239 238
327 327 327 327 327 326 325 325 324 323 322 321 320 319 317 316 316 315 313 311 308 304 301 300 300 299 297 294 290 287 287 289 291 291 290 288 286 286 285 283 280 278 276 276 276 277 278 278 278 277 278 279 280 278 276 274 272 271 270 269 268 265 263 262 260 258 256 253 249 248 247 247 246 246 245 245 244 242 240 240 239 239 239 238 237
328 328 328 327 327 326 325 325 324 324 323 322 321 319 318 317 316 315 313 310 307 303 300 298 298 297 295 293 289 285 283 285 287 288 287 286 284 283 283 283 281 279 277 275 274 274 275 276 276 276 276 277 279 279 278 276 276 275 274 273 272 269 266 264 262 259 258 255 251 247 246 245 245 245 245 245 244 243 241 240 240 239 239 238 237